TimePDT,TemperatureF,Dew PointF,Humidity,Sea Level PressureIn,VisibilityMPH,Wind Direction,Wind SpeedMPH,Gust SpeedMPH,PrecipitationIn,Events,Conditions,WindDirDegrees,DateUTC
12:53 AM,60.1,36.0,41,29.96,10.0,NW,11.5,-,N/A,,Clear,310,2013-07-13 07:53:00
1:53 AM,59.0,36.0,42,29.97,10.0,WNW,12.7,-,N/A,,Clear,290,2013-07-13 08:53:00
2:53 AM,57.9,37.0,46,29.98,10.0,WNW,15.0,-,N/A,,Clear,300,2013-07-13 09:53:00
3:53 AM,57.0,37.9,49,29.99,10.0,WNW,13.8,-,N/A,,Clear,300,2013-07-13 10:53:00
4:53 AM,57.0,37.0,47,30.01,10.0,NW,13.8,-,N/A,,Clear,310,2013-07-13 11:53:00
5:53 AM,57.9,37.0,46,30.02,10.0,WNW,17.3,-,N/A,,Clear,300,2013-07-13 12:53:00
6:53 AM,61.0,37.9,42,30.05,10.0,NW,16.1,-,N/A,,Clear,310,2013-07-13 13:53:00
7:53 AM,66.0,37.0,34,30.06,10.0,NW,12.7,-,N/A,,Clear,310,2013-07-13 14:53:00
8:53 AM,70.0,37.0,30,30.09,10.0,West,8.1,-,N/A,,Clear,280,2013-07-13 15:53:00
9:53 AM,71.1,37.0,29,30.09,10.0,Calm,Calm,-,N/A,,Clear,0,2013-07-13 16:53:00
10:53 AM,73.0,37.0,27,30.09,10.0,SSE,5.8,-,N/A,,Clear,150,2013-07-13 17:53:00
11:53 AM,75.9,37.9,25,30.08,10.0,Variable,5.8,-,N/A,,Clear,0,2013-07-13 18:53:00
12:53 PM,75.9,37.9,25,30.08,10.0,Calm,Calm,-,N/A,,Clear,0,2013-07-13 19:53:00
1:53 PM,78.1,37.9,24,30.08,10.0,WSW,4.6,18.4,N/A,,Clear,250,2013-07-13 20:53:00
2:53 PM,80.1,37.0,21,30.07,10.0,SSE,9.2,18.4,N/A,,Clear,150,2013-07-13 21:53:00
3:53 PM,80.1,37.0,21,30.05,10.0,South,10.4,-,N/A,,Clear,190,2013-07-13 22:53:00
4:53 PM,80.1,36.0,20,30.04,10.0,East,6.9,-,N/A,,Clear,100,2013-07-13 23:53:00
5:53 PM,81.0,35.1,19,30.03,10.0,Variable,5.8,-,N/A,,Clear,0,2013-07-14 00:53:00
6:53 PM,80.1,35.1,20,30.02,10.0,Variable,5.8,-,N/A,,Clear,0,2013-07-14 01:53:00
7:53 PM,77.0,35.1,22,30.02,10.0,South,8.1,-,N/A,,Clear,180,2013-07-14 02:53:00
8:53 PM,72.0,35.1,26,30.02,10.0,SW,4.6,-,N/A,,Clear,230,2013-07-14 03:53:00
9:53 PM,70.0,36.0,29,30.03,10.0,West,3.5,-,N/A,,Clear,270,2013-07-14 04:53:00
10:53 PM,69.1,33.1,26,30.03,10.0,WNW,3.5,-,N/A,,Clear,300,2013-07-14 05:53:00
11:53 PM,66.9,33.1,28,30.03,10.0,NW,3.5,-,N/A,,Clear,310,2013-07-14 06:53:00